Content
SEND FEEDBACK

Daily
Averages
Monthly
Summary
Mexico

PUERTO MORELOS, QUINTANA ROO


Home > North America > Mexico > Quintana Roo
Elevation: 20 feet     Latitude: 20 51N     Longitude: 086 52W

WEATHER
 
SELECT A DAY
Number of Records: 166,572;   Date Range: 1/1/95 - 10/29/14
 
SHARE

PRINT THIS DATA

[ ← Previous Day ]
WEATHER ALMANAC - JULY 13, 2014
[ Next Day → ]
[ °C ]   °F
Weather ElementAverageHighLow
Temperature82.7 °F89.6 °F (12:46 pm)75.2 °F (2:43 am)
Dewpoint75.2 °F77 °F (9:47 pm)73.4 °F (12:45 am)
Humidity79.1 %94 % (2:43 am)59 % (12:46 pm)
Barometer30.03 in30.08 in (7:42 am)29.97 in (1:44 am)
Wind Speed5.2 mph11.5 mph (6:40 pm)
Weather ElementAverage
Visibility7 mi
Wind DirectionENE (83.3 °)

Weather ElementTotal
Precipitation---
Cooling Degree Days17.4 (Base 65)
Growing Degree Days32.4 (Base 50)
Averaged from 24 records on July 13, 2014
WEATHER CONDITIONS BREAKOUT
WIND DIRECTION BREAKOUT
WEATHER BY HOUR - JULY 13, 2014
[ °C ]   °F
Local TimeTemperatureDewpointHumidityBarometerVisibilityWind DirectionWind SpeedGust SpeedPrecipitationEventsConditions
12:41 AM80.6 °F77.0 °F89 %30.01 in7.0 miENE (70°)3.5 mphScattered Clouds
1:47 AM80.6 °F77.0 °F89 %30.02 in7.0 miEast (90°)4.6 mphScattered Clouds
2:47 AM80.6 °F77.0 °F89 %30.01 in7.0 miESE (120°)4.6 mphScattered Clouds
3:40 AM78.8 °F77.0 °F94 %29.97 in7.0 miEast (100°)2.3 mphScattered Clouds
4:42 AM77.0 °F75.2 °F94 %30.00 in7.0 miCalmScattered Clouds
5:43 AM77.0 °F75.2 °F94 %30.01 in7.0 miCalmScattered Clouds
6:46 AM75.2 °F73.4 °F94 %29.98 in7.0 miNW (310°)3.5 mphMostly Cloudy
7:40 AM80.6 °F77.0 °F89 %30.04 in7.0 miCalmScattered Clouds
8:40 AM84.2 °F75.2 °F74 %30.05 in7.0 miESE (110°)6.9 mphScattered Clouds
9:40 AM86.0 °F75.2 °F70 %30.03 in7.0 miEast (100°)8.1 mphMostly Cloudy
10:42 AM86.0 °F73.4 °F66 %30.07 in7.0 miEast (100°)11.5 mphScattered Clouds
11:43 AM87.8 °F75.2 °F66 %30.07 in7.0 miEast (100°)9.2 mphScattered Clouds
12:46 PM87.8 °F75.2 °F66 %30.03 in7.0 miENE (70°)9.2 mphScattered Clouds
1:40 PM89.6 °F73.4 °F59 %30.04 in7.0 miEast (80°)8.1 mphScattered Clouds
2:43 PM89.6 °F73.4 °F59 %30.02 in7.0 miESE (120°)9.2 mphMostly Cloudy
3:45 PM87.8 °F73.4 °F62 %30.00 in7.0 miEast (100°)9.2 mphMostly Cloudy
4:44 PM86.0 °F75.2 °F70 %30.02 in7.0 miEast (80°)8.1 mphMostly Cloudy
5:44 PM86.0 °F75.2 °F70 %30.02 in7.0 miEast (90°)6.9 mphMostly Cloudy
6:45 PM84.2 °F75.2 °F74 %29.99 in7.0 miEast (100°)5.8 mphMostly Cloudy
7:45 PM82.4 °F75.2 °F79 %30.03 in7.0 miNE (50°)2.3 mphMostly Cloudy
8:44 PM80.6 °F75.2 °F84 %30.05 in7.0 miCalmScattered Clouds
9:48 PM78.8 °F75.2 °F89 %30.00 in7.0 miCalmScattered Clouds
10:47 PM78.8 °F75.2 °F89 %30.08 in7.0 miESE (110°)6.9 mphScattered Clouds
11:46 PM78.8 °F75.2 °F89 %30.07 in7.0 miEast (100°)5.8 mphScattered Clouds
Hourly data recorded from MMUN, located miles away from Puerto Morelos, Quintana Roo







STORIES FROM OUR PARTNERS